FW4441 Weather Reports


time (UTC)temp
C
wind
direction
speed
KPH
gust
KPH
rain 1hr
cm
rain 24hr
cm
rain mn
cm
humidity
%
barometer
mb
20260831181647 23 11 4.8 19.3 0.00 0.00 0.00 49 1010.8
20260831180043 22 282 3.2 9.7 0.00 0.00 0.00 56 1011.1
20260831173031 20 286 3.2 6.4 0.00 0.00 0.00 59 1011.5
20260831171533 20 267 1.6 4.8 0.00 0.00 0.00 60 1011.7
20260831164530 18 270 1.6 4.8 0.00 0.00 0.00 65 1012.1
20260831163030 17 305 1.6 4.8 0.00 0.00 0.00 69 1012.2
20260831161608 16 292 1.6 4.8 0.00 0.00 0.00 73 1012.5
20260831154532 15 96 0.0 1.6 0.00 0.00 0.00 77 1012.5
20260831153031 13 90 0.0 3.2 0.00 0.00 0.00 81 1012.6
20260831151530 12 90 0.0 1.6 0.00 0.00 0.00 85 1012.6
20260831150030 11 90 0.0 1.6 0.00 0.00 0.00 88 1012.5
20260831144531 8 90 0.0 3.2 0.00 0.00 0.00 89 1012.3
20260831143028 8 90 1.6 3.2 0.00 0.00 0.00 90 1012.3
20260831141532 8 90 0.0 3.2 0.00 0.00 0.00 89 1012.2
20260831140032 8 90 0.0 0.0 0.00 0.00 0.00 88 1012.1
20260831134532 8 90 0.0 3.2 0.00 0.00 0.00 88 1012.1
20260831124530 8 202 0.0 0.0 0.00 0.00 0.00 85 1012.1
20260831123031 9 170 0.0 0.0 0.00 0.00 0.00 84 1012.0
20260831121530 10 157 0.0 1.6 0.00 0.00 0.00 84 1012.0
20260831120028 10 130 1.6 4.8 0.00 0.00 0.00 83 1012.1
20260831114531 10 151 1.6 3.2 0.00 0.00 0.00 83 1012.1
20260831110031 10 180 1.6 3.2 0.00 0.00 0.00 83 1012.2
20260831104530 10 180 0.0 1.6 0.00 0.00 0.00 82 1012.3
20260831103029 10 173 1.6 4.8 0.00 0.00 0.00 80 1012.3
20260831101529 11 22 1.6 4.8 0.00 0.00 0.00 80 1012.2
20260831100028 11 22 1.6 3.2 0.00 0.00 0.00 80 1012.3
20260831094531 11 22 0.0 1.6 0.00 0.00 0.00 81 1012.5
20260831093107 11 22 0.0 1.6 0.00 0.00 0.00 79 1012.6
20260831091607 11 22 0.0 1.6 0.00 0.00 0.00 78 1012.7
20260831090033 11 13 3.2 6.4 0.00 0.00 0.00 77 1012.6
20260831084528 11 282 0.0 3.2 0.00 0.00 0.00 77 1012.8
20260831080030 11 270 0.0 1.6 0.00 0.00 0.00 75 1013.0
20260831074534 12 270 0.0 0.0 0.00 0.00 0.00 75 1013.0
20260831073032 12 270 0.0 0.0 0.00 0.00 0.00 74 1013.1
20260831070028 12 271 0.0 3.2 0.00 0.00 0.00 72 1013.2
20260831063031 13 1 6.4 9.7 0.00 0.00 0.00 71 1013.2
20260831061607 13 22 6.4 11.3 0.00 0.00 0.00 70 1013.3
20260831060031 13 22 6.4 8.0 0.00 0.00 0.00 70 1013.4
20260831054531 13 22 4.8 8.0 0.00 0.00 0.00 69 1013.4
20260831053107 14 24 1.6 4.8 0.00 0.00 0.00 68 1013.5
20260831051607 15 45 1.6 3.2 0.00 0.00 0.00 66 1013.5
20260831050030 15 45 0.0 0.0 0.00 0.00 0.00 64 1013.5
20260831044531 16 45 0.0 1.6 0.00 0.00 0.00 64 1013.5
20260831043029 16 44 1.6 6.4 0.00 0.00 0.00 63 1013.4
20260831041537 16 28 1.6 8.0 0.00 0.00 0.00 63 1013.4
20260831040031 16 31 6.4 11.3 0.00 0.00 0.00 63 1013.4
20260831034617 16 29 8.0 12.9 0.00 0.00 0.00 62 1013.2
20260831031531 17 14 8.0 12.9 0.00 0.00 0.00 58 1013.0
20260831030029 17 28 6.4 12.9 0.00 0.00 0.00 57 1013.0
20260831024530 18 358 3.2 8.0 0.00 0.00 0.00 54 1013.0
20260831023105 19 330 4.8 9.7 0.00 0.00 0.00 53 1012.9
20260831021605 20 307 3.2 8.0 0.00 0.00 0.00 52 1012.9
20260831014530 21 249 4.8 11.3 0.00 0.00 0.00 48 1012.9
20260831013028 22 231 9.7 19.3 0.00 0.00 0.00 46 1013.0
20260831011531 23 237 8.0 19.3 0.00 0.00 0.00 43 1013.0
20260831010031 23 246 9.7 19.3 0.00 0.00 0.00 42 1013.0
20260831004532 24 245 9.7 19.3 0.00 0.00 0.00 42 1013.1
20260831001529 25 246 9.7 20.9 0.00 0.00 0.00 40 1013.1
20260831000032 25 251 11.3 20.9 0.00 0.00 0.00 40 1013.2
20260830233030 25 250 11.3 25.7 0.00 0.00 0.00 39 1013.6
20260830231533 24 257 16.1 33.8 0.00 0.00 0.00 39 1013.7
20260830230030 24 274 12.9 29.0 0.00 0.00 0.00 41 1013.9
20260830223145 25 292 11.3 24.1 0.00 0.00 0.00 42 1014.4
20260830221531 25 287 11.3 22.5 0.00 0.00 0.00 43 1014.6
20260830220106 23 280 12.9 22.5 0.00 0.00 0.00 44 1014.7
20260830214531 23 286 14.5 29.0 0.00 0.00 0.00 44 1015.0
20260830211530 23 276 12.9 27.4 0.00 0.00 0.00 45 1015.2
20260830210034 23 280 16.1 30.6 0.00 0.00 0.00 46 1015.2
20260830203030 23 275 16.1 29.0 0.00 0.00 0.00 46 1015.7
20260830201609 23 267 12.9 27.4 0.00 0.00 0.00 46 1015.9
20260830200031 23 272 11.3 20.9 0.00 0.00 0.00 47 1016.1
20260830194605 22 271 9.7 19.3 0.00 0.00 0.00 48 1016.2
20260830190032 22 270 9.7 20.9 0.00 0.00 0.00 50 1016.7
20260830184529 21 270 9.7 17.7 0.00 0.00 0.00 51 1016.9
20260830183032 21 271 8.0 19.3 0.00 0.00 0.00 52 1017.0